Temperature
7 7 7 7 7 7 7 7 6 7 7 7 4 4 5 6 7 10 11 11 11 10 8 8 7 7 7 6 7 6 5 5 4 3 2 2 1 1 -0 -1 -1 -1 -1 -0
4 6 6 5 6 6 6 6 6 6 5 2 3 4 4 3 4 6 10 10 9 7 7 7 7 6 6 5 5 5 4 3 2 2 1 0 -1 -3 -3 -2 -2 -2 -1 -1
2 5 4 3 5 6 6 6 5 4 3 1 3 4 4 3 2 3 7 8 7 5 4 4 5 4 4 4 4 3 3 2 1 -1 -1 -3 -4 -4 -4 -4 -3 -3 -2 -2
2 3 2 5 7 6 5 6 3 3 3 3 3 3 3 3 2 2 3 4 5 4 4 4 4 4 3 3 2 1 -0 -1 -2 -3 -3 -4 -5 -5 -4 -4 -4 -3 -3 -3
0 1 2 4 5 4 4 3 3 2 3 4 3 3 4 3 3 3 3 2 1 0 1 3 3 3 3 1 0 -1 -2 -2 -3 -4 -4 -5 -5 -5 -5 -4 -4 -4 -4 -4
-2 -1 -1 3 5 5 3 1 3 2 4 4 3 2 5 4 4 4 4 3 2 1 1 1 2 2 0 -0 -1 -2 -2 -3 -4 -4 -5 -6 -6 -6 -5 -5 -5 -5 -5 -5
-1 -2 -0 3 4 4 2 2 4 4 4 4 2 3 5 5 4 4 3 2 1 0 -0 -0 -1 -1 -1 -2 -3 -3 -4 -4 -5 -5 -6 -6 -6 -6 -6 -6 -6 -6 -6 -6
-1 -2 -2 3 2 1 3 4 4 4 4 4 4 4 4 5 5 4 3 2 1 -0 -1 -2 -4 -4 -3 -3 -4 -5 -5 -5 -5 -6 -7 -7 -7 -7 -7 -7 -7 -7 -7 -7
0 1 3 4 3 4 4 3 3 3 3 3 3 4 5 5 5 4 2 0 -1 -2 -3 -4 -5 -5 -4 -5 -5 -5 -6 -6 -7 -8 -8 -8 -8 -8 -8 -8 -8 -9 -9 -9
1 1 3 3 3 3 3 2 2 2 2 3 3 4 4 3 3 3 1 -1 -2 -3 -4 -5 -6 -6 -6 -5 -6 -6 -7 -8 -8 -8 -8 -9 -9 -9 -9 -9 -9 -10 -10 -10
0 2 2 3 3 2 2 1 -0 -0 0 1 2 2 3 3 2 1 -1 -2 -3 -4 -5 -6 -6 -7 -7 -6 -7 -8 -8 -9 -9 -9 -9 -9 -9 -9 -9 -10 -11 -11 -11 -11
1 2 2 2 2 0 -1 -2 -2 -2 -2 -1 -0 -0 0 2 1 -1 -2 -4 -5 -6 -6 -7 -7 -7 -7 -7 -8 -9 -9 -9 -9 -9 -9 -9 -9 -9 -9 -10 -10 -10 -11 -11
2 2 1 1 -1 -2 -3 -3 -3 -2 -2 -2 -1 -0 -1 -1 -2 -3 -4 -5 -6 -7 -8 -8 -7 -8 -8 -9 -9 -9 -9 -9 -9 -10 -9 -9 -9 -9 -9 -9 -10 -10 -10 -10
2 1 -1 -2 -4 -4 -3 -2 -1 -1 -1 -1 -1 -1 -1 -2 -3 -4 -6 -7 -7 -8 -8 -8 -8 -9 -9 -9 -10 -10 -10 -10 -10 -10 -10 -10 -10 -10 -11 -11 -10 -10 -10 -11
-0 -2 -4 -5 -4 -4 -2 -1 -1 -1 -1 -1 -2 -2 -3 -4 -5 -7 -7 -8 -9 -9 -9 -9 -10 -10 -10 -10 -10 -10 -10 -11 -11 -11 -11 -11 -11 -11 -12 -12 -12 -11 -11 -12
-3 -4 -5 -5 -4 -4 -2 -1 -1 -1 -2 -3 -3 -4 -5 -6 -7 -8 -8 -9 -9 -9 -10 -10 -11 -11 -11 -11 -11 -11 -11 -11 -11 -11 -12 -12 -12 -12 -12 -12 -12 -12 -12 -12
-6 -5 -5 -6 -5 -5 -4 -3 -2 -3 -4 -5 -6 -6 -7 -7 -8 -9 -10 -10 -10 -10 -11 -11 -11 -11 -11 -11 -12 -12 -12 -12 -12 -12 -12 -12 -12 -13 -13 -13 -13 -13 -13 -13
-6 -6 -6 -6 -6 -6 -5 -5 -5 -5 -6 -7 -7 -7 -8 -9 -9 -10 -10 -10 -11 -11 -11 -11 -11 -11 -12 -12 -12 -13 -13 -13 -13 -13 -13 -13 -13 -14 -13 -13 -13 -14 -14 -14
-6 -6 -6 -6 -6 -6 -6 -7 -7 -7 -7 -7 -8 -8 -9 -9 -10 -10 -11 -11 -11 -11 -11 -11 -11 -12 -12 -12 -13 -13 -14 -13 -13 -13 -13 -14 -14 -14 -14 -14 -14 -14 -15 -15
-6 -7 -7 -7 -7 -7 -7 -8 -8 -8 -8 -9 -9 -9 -9 -10 -11 -11 -11 -11 -11 -11 -12 -12 -12 -12 -13 -13 -13 -14 -14 -13 -13 -14 -14 -15 -14 -14 -15 -15 -15 -15 -15 -15
-6 -7 -7 -7 -8 -8 -8 -8 -8 -8 -9 -9 -9 -10 -10 -10 -11 -11 -11 -12 -12 -12 -13 -12 -13 -13 -13 -14 -14 -14 -14 -14 -14 -14 -15 -15 -15 -15 -15 -15 -15 -15 -15 -15
-7 -8 -8 -8 -8 -8 -8 -9 -9 -9 -9 -10 -10 -10 -11 -11 -11 -12 -12 -12 -12 -13 -13 -13 -13 -13 -14 -14 -14 -14 -14 -15 -15 -15 -15 -15 -15 -15 -15 -15 -15 -15 -15 -15
-7 -7 -8 -8 -8 -8 -9 -9 -9 -10 -10 -10 -11 -11 -11 -11 -12 -12 -12 -13 -14 -14 -14 -14 -14 -14 -15 -14 -14 -15 -15 -15 -15 -15 -15 -15 -15 -15 -15 -15 -15 -15 -15 -16
-7 -7 -8 -8 -8 -9 -9 -9 -10 -10 -10 -11 -11 -11 -12 -12 -12 -13 -13 -13 -14 -14 -14 -15 -15 -15 -15 -15 -15 -15 -15 -15 -15 -15 -15 -15 -15 -15 -15 -15 -15 -16 -16 -16
-7 -8 -8 -8 -9 -9 -9 -10 -11 -11 -11 -11 -12 -12 -12 -13 -13 -13 -14 -14 -14 -14 -14 -14 -14 -15 -15 -15 -15 -15 -15 -15 -15 -16 -15 -15 -15 -15 -15 -16 -16 -17 -16 -16
-8 -8 -8 -9 -9 -9 -10 -11 -11 -11 -11 -12 -12 -12 -13 -13 -14 -14 -14 -14 -14 -15 -15 -15 -15 -15 -15 -15 -15 -15 -15 -15 -15 -15 -15 -15 -15 -16 -16 -16 -17 -16 -15 -15
-8 -8 -9 -9 -9 -10 -11 -11 -11 -11 -12 -12 -13 -13 -13 -14 -14 -14 -14 -15 -15 -15 -15 -15 -15 -15 -15 -15 -15 -15 -15 -15 -15 -15 -15 -15 -16 -16 -16 -17 -17 -16 -15 -15
Wind_Speed
11 13 19 24 21 18 18 21 21 27 28 20 17 19 20 23 24 22 14 12 10 6 10 10 9 7 6 6 7 8 6 5 4 4 5 7 7 7 8 10 10 11 11 10
19 10 18 23 21 20 18 17 16 18 14 13 18 17 19 25 25 25 16 6 5 7 11 10 8 6 6 6 5 4 4 4 5 5 6 7 9 9 8 8 9 9 10 9
9 15 17 12 7 10 10 9 7 7 3 9 18 19 15 16 23 26 12 7 11 10 8 7 6 5 5 4 4 5 6 6 5 5 7 7 8 9 8 8 7 8 9 9
6 9 9 10 21 10 8 12 8 9 8 11 13 14 14 6 9 17 14 12 9 6 5 4 4 6 6 6 6 6 6 6 6 6 6 7 8 8 9 8 8 8 9 11
3 6 13 15 12 6 11 15 9 9 11 13 11 11 6 3 1 1 5 7 6 4 1 4 6 5 6 6 6 6 6 6 6 6 6 6 7 8 8 7 7 8 9 10
3 5 8 14 15 6 3 11 7 7 15 13 8 9 10 5 8 10 10 10 8 5 1 3 4 5 5 5 7 7 7 7 6 7 7 6 6 7 7 7 7 7 6 8
9 8 10 15 13 4 7 14 10 13 12 15 11 18 16 10 10 10 8 7 8 7 5 3 3 4 5 7 7 7 7 6 6 7 7 5 6 7 6 6 7 7 7 7
4 5 9 7 10 8 18 21 19 18 19 17 16 20 19 14 10 10 10 10 9 7 6 6 4 4 5 6 6 7 7 6 6 7 7 7 6 6 6 6 6 6 6 5
8 11 17 23 23 23 20 21 23 21 18 12 16 17 13 10 7 11 10 8 8 8 7 6 4 4 5 5 6 6 6 6 6 6 7 7 6 6 5 5 5 5 5 5
14 22 24 23 26 23 21 22 23 21 20 20 16 14 11 8 6 10 10 9 9 8 7 5 5 6 4 5 6 5 5 5 5 6 7 7 6 5 5 5 5 5 6 6
15 24 27 23 23 28 28 27 25 25 25 19 11 9 7 5 3 7 8 8 7 7 6 5 5 5 5 6 6 4 4 5 5 5 5 5 5 5 5 5 5 5 4 4
16 22 26 32 32 29 26 25 25 26 24 20 18 17 12 3 8 8 8 8 7 7 5 4 5 5 5 6 5 4 4 5 4 4 4 4 4 6 8 9 11 10 10 9
17 22 27 31 28 27 26 29 30 27 21 16 13 11 5 9 9 9 10 8 7 6 4 4 5 6 6 6 5 5 4 4 4 4 4 4 5 6 6 8 10 12 13 13
20 21 22 22 26 29 29 27 24 15 8 3 1 7 12 12 11 10 9 7 6 5 4 5 6 6 6 6 5 5 5 5 3 4 4 4 5 5 6 7 8 8 11 13
13 16 21 24 25 24 24 17 9 6 7 10 11 12 13 13 11 10 8 6 6 6 5 6 5 5 6 6 5 5 5 4 2 3 5 5 5 6 6 7 7 8 8 9
16 17 16 17 19 21 21 13 6 5 9 11 13 14 13 12 11 9 7 5 5 6 5 5 4 5 5 5 5 4 4 8 7 5 6 6 6 6 6 6 7 8 8 8
12 13 18 18 17 16 17 17 14 13 13 14 13 12 12 11 10 9 8 7 6 5 5 4 5 5 5 4 4 4 4 6 9 6 5 5 5 5 5 5 6 7 7 9
8 8 9 11 11 12 14 15 15 14 13 12 11 10 10 9 7 6 5 5 5 5 5 6 6 3 5 6 6 3 3 5 5 5 6 6 6 4 5 6 6 8 8 10
6 7 8 10 10 10 10 11 11 11 11 11 11 10 9 8 6 5 5 5 5 5 6 8 8 7 7 10 8 2 4 5 6 6 6 8 7 6 6 7 8 8 9 10
5 5 6 8 9 9 9 9 9 10 9 8 9 8 8 6 5 5 6 5 3 4 7 8 7 7 7 9 9 5 5 5 6 6 7 7 7 8 8 9 10 10 10 10
3 4 5 6 8 9 10 9 8 9 9 9 8 6 5 5 5 5 4 4 6 7 7 10 8 8 6 6 6 4 5 6 6 6 7 7 8 9 9 9 10 10 10 10
2 3 4 5 7 8 8 7 7 7 7 7 7 6 7 7 5 3 2 3 6 8 7 6 8 8 10 10 6 6 7 7 7 7 7 8 9 9 10 11 11 11 11 11
3 3 4 5 5 5 5 6 6 6 7 7 6 6 5 4 4 4 5 6 7 8 7 7 12 15 15 9 6 7 8 8 8 8 8 9 9 10 11 12 12 12 12 12
4 4 5 5 5 6 6 4 5 5 5 5 5 5 4 3 3 4 5 8 11 11 8 10 14 16 13 7 6 7 7 8 8 8 9 10 10 10 11 13 13 13 14 16
5 4 4 6 6 4 2 1 3 4 4 4 4 5 4 3 3 5 5 6 10 10 7 11 16 15 9 7 7 7 8 8 9 9 9 10 11 12 12 13 14 16 16 15
5 4 4 4 4 3 1 1 2 2 3 3 4 4 4 4 5 5 5 7 8 9 8 7 9 9 7 7 8 8 8 9 10 10 10 10 11 11 12 13 15 16 16 15
5 5 4 2 2 2 2 3 3 3 4 3 3 4 5 5 6 7 7 7 7 7 7 7 8 9 8 8 8 8 9 9 11 11 10 10 10 10 12 13 13 14 15 13
Wind_Direction
278 293 297 294 299 295 284 276 274 279 283 305 344 338 325 316 312 297 272 283 289 177 137 116 100 86 76 73 65 61 63 61 37 14 355 342 333 338 336 330 332 333 325 321
301 288 287 294 295 291 285 289 294 294 297 350 332 326 339 337 333 321 295 340 15 123 117 108 101 88 75 67 67 73 69 49 24 14 4 355 345 346 337 323 322 328 321 326
286 304 303 292 297 310 308 306 292 273 242 326 326 318 322 329 329 320 314 96 90 69 64 68 69 91 96 79 54 47 36 24 15 3 6 355 349 345 332 323 326 338 339 354
288 310 282 313 318 289 278 286 244 237 262 290 291 286 286 306 6 354 12 32 42 82 101 105 101 74 61 56 49 45 24 7 2 5 351 356 354 344 339 342 350 358 7 15
250 263 292 305 282 289 309 296 235 229 273 281 275 284 278 231 140 138 65 42 18 2 20 76 65 73 77 63 54 41 15 356 350 348 334 349 355 344 345 352 10 11 18 22
257 274 272 266 283 299 290 280 222 246 308 297 277 291 297 215 218 220 199 177 171 160 109 56 62 69 73 58 40 21 357 343 346 346 329 340 5 354 352 7 16 7 10 26
265 253 256 266 287 325 276 288 304 300 292 298 274 273 283 279 243 206 188 166 149 139 121 76 38 70 75 52 25 353 342 346 350 346 332 3 19 14 6 14 14 10 8 8
250 256 271 268 313 284 289 299 298 293 293 290 281 278 276 272 249 182 168 159 153 139 115 77 36 47 65 44 6 347 350 358 353 347 350 8 23 17 14 8 9 5 353 347
244 254 275 290 293 288 290 289 289 286 286 277 287 271 262 268 211 174 159 149 141 131 113 101 77 47 57 25 1 355 1 359 354 355 10 8 8 12 8 4 352 346 342 340
279 275 281 291 291 291 289 287 287 284 279 285 276 261 282 285 183 162 150 142 136 131 124 112 85 57 27 24 6 2 7 358 4 12 21 12 6 4 6 357 342 345 344 339
269 285 294 289 291 296 300 306 301 292 286 279 257 265 271 292 188 137 113 106 118 117 105 103 86 59 18 24 16 4 9 8 15 27 19 5 358 357 360 346 343 344 328 325
285 295 298 296 302 315 317 309 299 289 279 274 273 275 281 102 110 114 111 107 101 98 106 105 81 54 22 20 17 13 21 19 13 24 9 5 356 355 1 360 357 356 346 336
284 289 294 302 313 315 311 306 301 296 281 265 261 262 194 122 114 107 101 102 102 106 114 92 72 48 21 14 17 27 12 28 14 8 358 3 3 359 346 346 353 353 348 341
291 305 312 311 310 307 305 303 308 323 322 260 150 94 106 106 104 96 93 96 103 101 84 75 68 45 23 15 23 16 357 7 16 360 348 351 351 347 339 336 336 338 342 338
304 311 303 303 306 312 311 306 319 353 44 64 74 85 91 93 92 93 98 103 97 82 67 64 60 40 26 20 19 6 350 339 350 355 338 340 340 332 330 329 327 324 325 328
308 304 311 319 324 335 342 338 337 57 72 73 72 75 81 87 88 86 81 73 74 70 59 51 40 28 16 9 353 344 340 340 341 341 332 332 326 321 320 318 318 319 320 323
311 324 335 339 344 355 6 18 41 59 68 73 76 80 83 85 84 79 74 73 77 70 46 22 6 3 345 323 305 305 318 327 332 323 307 301 296 289 286 289 300 309 308 312
304 324 341 347 358 11 19 29 42 54 63 73 80 84 84 84 85 86 87 86 70 50 23 351 329 329 319 313 295 276 297 305 308 306 304 302 297 291 292 291 296 303 306 309
340 360 10 16 16 25 31 33 39 47 53 62 69 67 65 65 65 63 66 64 48 25 344 327 334 343 318 325 331 346 308 306 308 304 300 307 315 310 302 302 302 299 300 305
6 11 25 27 22 27 34 37 45 50 48 57 68 68 61 47 45 51 55 41 352 299 308 333 340 314 305 319 336 347 323 314 312 312 313 317 312 308 308 304 302 301 300 298
27 24 34 41 39 37 36 35 47 49 43 52 64 67 59 36 30 41 47 13 326 324 348 345 327 308 317 354 358 337 324 324 323 317 313 313 309 304 297 292 293 293 290 285
68 55 60 65 63 50 32 30 42 48 49 51 53 49 46 33 24 21 350 304 311 341 3 330 312 330 15 15 358 341 335 331 327 322 314 307 302 299 298 298 297 294 290 286
90 91 89 84 83 71 45 37 43 51 48 42 39 35 39 27 15 4 346 336 329 356 1 325 335 360 16 5 342 335 334 331 324 315 308 304 302 300 300 301 301 299 296 290
119 112 104 95 90 86 71 35 39 46 42 36 27 18 12 357 355 356 331 341 354 12 359 346 356 8 11 349 337 337 334 327 319 316 316 315 311 310 310 308 304 299 294 289
123 119 118 113 111 119 123 41 30 32 36 19 3 355 350 345 339 340 336 349 0 12 358 356 4 10 0 340 343 340 332 326 326 328 320 322 323 320 317 315 313 313 311 305
136 144 144 151 160 162 158 100 71 67 67 36 11 355 348 343 349 1 356 9 3 6 360 353 355 0 350 346 347 336 327 325 327 330 334 330 324 325 326 329 330 330 325 319
133 136 124 102 80 121 132 108 84 54 44 39 14 358 358 359 5 11 9 7 3 359 354 349 349 355 355 348 340 333 331 332 339 343 337 327 324 325 329 329 335 340 341 348
Height
1511 1509 1502 1496 1496 1495 1492 1485 1485 1473 1466 1466 1471 1465 1455 1445 1433 1423 1417 1415 1412 1411 1413 1414 1417 1421 1423 1422 1422 1422 1421 1418 1416 1412 1410 1408 1406 1404 1403 1402 1399 1396 1394 1391
1508 1508 1503 1497 1492 1489 1483 1476 1475 1471 1469 1477 1471 1462 1451 1442 1432 1423 1413 1409 1408 1407 1408 1410 1413 1417 1419 1418 1417 1416 1414 1411 1408 1406 1405 1403 1401 1401 1401 1399 1396 1393 1392 1388
1519 1505 1501 1501 1488 1484 1479 1474 1474 1471 1471 1467 1463 1457 1449 1443 1437 1425 1412 1409 1405 1411 1412 1412 1412 1414 1414 1413 1411 1409 1408 1406 1405 1403 1401 1399 1399 1400 1399 1396 1393 1391 1390 1387
1520 1511 1511 1490 1480 1477 1476 1469 1469 1466 1463 1458 1455 1450 1444 1439 1434 1428 1419 1416 1415 1414 1416 1414 1412 1410 1409 1408 1407 1406 1405 1405 1403 1401 1399 1397 1398 1399 1397 1394 1392 1390 1389 1386
1526 1515 1502 1491 1474 1473 1473 1468 1461 1462 1458 1453 1448 1443 1437 1434 1429 1428 1425 1422 1421 1420 1416 1411 1408 1406 1406 1406 1404 1403 1402 1402 1401 1399 1397 1396 1396 1397 1395 1393 1391 1389 1388 1385
1528 1526 1519 1484 1469 1469 1472 1469 1456 1457 1452 1447 1444 1440 1430 1427 1425 1422 1420 1417 1417 1417 1414 1410 1407 1406 1405 1403 1401 1400 1399 1399 1398 1396 1395 1394 1394 1393 1392 1390 1389 1387 1385 1382
1520 1521 1498 1477 1468 1469 1474 1464 1455 1451 1447 1444 1440 1433 1425 1420 1417 1414 1414 1414 1412 1411 1409 1408 1407 1404 1402 1399 1399 1399 1398 1397 1396 1395 1394 1393 1391 1390 1388 1386 1386 1383 1382 1380
1515 1514 1500 1469 1471 1473 1464 1453 1449 1443 1439 1435 1429 1423 1418 1416 1414 1409 1407 1407 1406 1406 1405 1402 1402 1402 1399 1397 1397 1397 1396 1395 1394 1393 1392 1390 1388 1387 1386 1383 1382 1380 1378 1376
1502 1491 1472 1465 1464 1457 1453 1448 1441 1437 1429 1426 1423 1418 1413 1411 1408 1404 1403 1403 1403 1401 1399 1398 1399 1401 1398 1395 1395 1395 1394 1393 1392 1390 1389 1387 1386 1384 1383 1381 1379 1377 1375 1372
1490 1475 1466 1461 1452 1448 1444 1438 1432 1428 1423 1418 1414 1411 1407 1405 1403 1399 1397 1397 1397 1397 1396 1396 1396 1397 1397 1393 1393 1392 1392 1391 1388 1387 1386 1384 1384 1382 1380 1379 1377 1375 1372 1369
1483 1469 1457 1454 1447 1438 1431 1426 1420 1415 1411 1408 1405 1402 1400 1397 1396 1395 1394 1394 1394 1393 1394 1395 1394 1395 1395 1392 1391 1391 1389 1388 1386 1385 1384 1383 1381 1379 1378 1377 1375 1373 1370 1367
1476 1468 1458 1440 1432 1428 1422 1414 1406 1398 1392 1392 1393 1393 1393 1391 1390 1391 1392 1392 1392 1392 1393 1395 1393 1393 1392 1389 1388 1389 1388 1386 1385 1384 1383 1382 1380 1378 1376 1375 1372 1369 1367 1365
1468 1460 1451 1439 1430 1421 1413 1404 1394 1385 1379 1378 1381 1383 1382 1383 1386 1389 1389 1390 1391 1391 1394 1394 1391 1390 1389 1388 1387 1388 1387 1386 1385 1384 1382 1380 1377 1375 1374 1373 1371 1368 1364 1361
1462 1453 1442 1434 1425 1415 1405 1396 1389 1381 1374 1374 1376 1378 1379 1382 1385 1387 1388 1389 1390 1392 1394 1392 1390 1390 1389 1388 1388 1388 1387 1386 1385 1383 1381 1378 1376 1373 1371 1368 1365 1363 1361 1358
1457 1451 1442 1432 1421 1412 1400 1393 1389 1384 1380 1378 1379 1381 1382 1384 1386 1388 1390 1391 1393 1394 1393 1391 1390 1390 1389 1389 1388 1388 1387 1386 1383 1381 1379 1376 1373 1371 1368 1365 1362 1359 1356 1354
1450 1442 1436 1429 1420 1410 1400 1393 1389 1386 1385 1384 1385 1386 1387 1388 1389 1390 1392 1393 1394 1393 1392 1391 1390 1390 1390 1390 1389 1387 1386 1384 1381 1379 1376 1373 1370 1368 1365 1362 1359 1355 1352 1349
1444 1437 1431 1425 1419 1412 1405 1398 1394 1392 1391 1390 1390 1391 1391 1392 1392 1393 1393 1394 1394 1393 1392 1391 1391 1391 1391 1390 1388 1386 1383 1381 1379 1376 1373 1370 1367 1364 1361 1358 1355 1352 1349 1347
1443 1438 1434 1428 1422 1415 1410 1406 1402 1400 1397 1396 1396 1396 1396 1395 1395 1395 1395 1395 1394 1393 1393 1393 1392 1391 1390 1388 1386 1383 1381 1379 1376 1373 1369 1366 1363 1361 1358 1355 1351 1349 1346 1343
1440 1436 1432 1428 1423 1419 1415 1411 1408 1406 1403 1402 1401 1400 1399 1399 1398 1397 1396 1396 1395 1395 1394 1393 1392 1391 1388 1386 1384 1381 1379 1376 1372 1369 1366 1363 1360 1357 1354 1351 1348 1345 1342 1339
1437 1435 1432 1428 1424 1421 1417 1414 1412 1410 1408 1406 1405 1404 1402 1401 1400 1400 1399 1398 1397 1396 1395 1393 1391 1389 1387 1384 1382 1379 1376 1372 1368 1365 1362 1359 1356 1353 1351 1348 1346 1342 1338 1334
1436 1434 1431 1427 1425 1423 1420 1418 1416 1413 1412 1410 1408 1406 1405 1404 1403 1403 1401 1400 1399 1396 1395 1392 1390 1388 1385 1382 1379 1376 1372 1368 1365 1362 1359 1356 1353 1351 1348 1345 1341 1336 1332 1328
1434 1433 1430 1428 1426 1425 1423 1421 1419 1417 1415 1413 1411 1410 1409 1407 1406 1405 1403 1402 1399 1397 1394 1392 1390 1388 1384 1380 1376 1372 1369 1366 1363 1360 1357 1355 1352 1349 1344 1340 1335 1330 1326 1322
1432 1431 1430 1429 1428 1427 1425 1423 1421 1419 1418 1416 1414 1413 1411 1410 1408 1407 1404 1402 1399 1397 1394 1391 1390 1387 1382 1377 1374 1370 1367 1365 1362 1359 1357 1353 1350 1345 1340 1335 1329 1324 1319 1314
1431 1431 1431 1430 1429 1428 1426 1424 1423 1421 1420 1419 1417 1416 1414 1413 1411 1408 1405 1402 1400 1397 1393 1390 1388 1385 1380 1376 1373 1370 1368 1365 1362 1359 1356 1352 1347 1342 1336 1330 1324 1317 1311 1305
1431 1431 1431 1430 1430 1428 1427 1426 1424 1423 1422 1422 1420 1418 1416 1414 1412 1409 1405 1402 1399 1396 1392 1389 1386 1383 1380 1377 1374 1372 1369 1366 1362 1358 1354 1350 1344 1339 1332 1325 1318 1311 1303 1296
1430 1431 1431 1430 1430 1429 1428 1427 1426 1425 1424 1423 1422 1420 1417 1415 1412 1409 1406 1402 1399 1396 1392 1389 1386 1384 1381 1379 1376 1374 1370 1366 1362 1357 1354 1349 1344 1337 1330 1322 1314 1306 1297 1290
1430 1431 1430 1430 1430 1429 1428 1428 1428 1427 1426 1425 1423 1421 1418 1415 1412 1409 1406 1402 1399 1396 1393 1391 1388 1386 1383 1381 1378 1375 1371 1366 1361 1358 1355 1350 1344 1338 1330 1322 1314 1307 1299 1293